Location: Umburanas
(4.5000°S, 37.9667°W)
Time: 09:02:28
(UTC+00:00)

NOAA 11 - Pass Details

Date: 19 November 2019
Orbit: 834 x 849 km, 98.4° (Epoch: 10 December)

Event Time Altitude Azimuth Distance (km) Brightness Sun altitude
Rises 21:55:29 0° 170° (S) 3,388 7.5 -21.3°
Reaches altitude 10° 21:57:51 10° 170° (S) 2,449 6.8 -21.9°
Maximum altitude 22:03:17 83° 257° (WSW) 844 4.2 -23.1°
Drops below altitude 10° 22:08:41 10° 345° (NNW) 2,433 6.5 -24.4°
Sets 22:11:01 0° 346° (NNW) 3,363 7.2 -24.9°
